Kelso-Longview, WA

10:25 PM PDT on June 22, 2018 (GMT -0700)
Kelso-Longview

Weather History for KKLS - August, 2016

Change the Weather History Date:

Friday, August 19, 2016

  Actual Average Record
Temperature  
Mean Temperature 80 °F -  
Max Temperature 100 °F 74 °F 100 °F (2016)
Min Temperature 60 °F 53 °F 44 °F (1996)
Cooling Degree Days 14    
Growing Degree Days 30 (Base 50)    
Moisture  
Dew Point 54 °F    
Average Humidity 46    
Maximum Humidity 80    
Minimum Humidity 21    
Precipitation  
Precipitation 0.00 in - - ()
Sea Level Pressure  
Sea Level Pressure 29.93 in    
Wind  
Wind Speed 2 mph (NNW)    
Max Wind Speed 12 mph    
Max Gust Speed 16 mph    
Visibility 10 miles    
Events      
Averages and records for this station are not official NWS values.
T = Trace of Precipitation, MM = Missing Value Source: NWS Daily Summary

Daily Weather History Graph

Daily Weather History Graph

Search for Another Location

Airport or City:

Astronomy

Aug. 19, 2016 Rise Set
Actual Time 6:16 AM PDT 8:12 PM PDT
Civil Twilight 5:44 AM PDT 8:44 PM PDT
Nautical Twilight 5:04 AM PDT 9:24 PM PDT
Astronomical Twilight 4:21 AM PDT 10:07 PM PDT
Moon 9:02 PM PDT (8/19) 7:46 AM PDT (8/19)
Length of Visible Light 15h 00m
Length of Day
13h 55m
Full, 97% of the Moon is Illuminated
Aug 19
Full
Aug 24
Last Quarter
Sep 1
New
Sep 9
First Quarter
Sep 16
Full

Hourly Weather History & Observations

Time (PDT) Temp. Heat Index Dew Point Humidity Pressure Visibility Wind Dir Wind Speed Gust Speed Precip Events Conditions
12:56 AM 70.0 °F - 53.1 °F 55% 29.92 in 10.0 mi Calm Calm - N/A   Clear
1:56 AM 66.0 °F - 54.0 °F 65% 29.93 in 10.0 mi Calm Calm - N/A   Clear
2:56 AM 64.9 °F - 54.0 °F 68% 29.93 in 10.0 mi Calm Calm - N/A   Clear
3:56 AM 62.1 °F - 54.0 °F 75% 29.94 in 10.0 mi Calm Calm - N/A   Clear
4:56 AM 62.1 °F - 54.0 °F 75% 29.93 in 8.0 mi Calm Calm - N/A   Clear
5:56 AM 61.0 °F - 54.0 °F 78% 29.95 in 9.0 mi Calm Calm - N/A   Clear
6:56 AM 60.1 °F - 54.0 °F 80% 29.97 in 8.0 mi Calm Calm - N/A   Clear
7:56 AM 66.0 °F - 55.9 °F 70% 29.98 in 8.0 mi Calm Calm - N/A   Clear
8:56 AM 73.0 °F - 57.0 °F 57% 29.98 in 10.0 mi Calm Calm - N/A   Clear
9:56 AM 80.1 °F 80.2 °F 55.9 °F 43% 29.98 in 10.0 mi North 5.8 mph - N/A   Clear
10:56 AM 84.0 °F 82.9 °F 55.0 °F 37% 29.97 in 10.0 mi NNW 9.2 mph - N/A   Clear
11:56 AM 89.1 °F 87.1 °F 55.0 °F 31% 29.96 in 10.0 mi Variable 6.9 mph - N/A   Clear
12:56 PM 93.0 °F 90.6 °F 53.1 °F 26% 29.95 in 10.0 mi Variable 5.8 mph - N/A   Clear
1:56 PM 96.1 °F 93.5 °F 53.1 °F 23% 29.94 in 10.0 mi Variable 3.5 mph - N/A   Clear
2:56 PM 98.1 °F 96.1 °F 54.0 °F 23% 29.91 in 10.0 mi WNW 5.8 mph - N/A   Clear
3:56 PM 99.0 °F 96.9 °F 54.0 °F 22% 29.89 in 10.0 mi NNW 6.9 mph - N/A   Clear
4:56 PM 99.0 °F 96.5 °F 53.1 °F 21% 29.88 in 10.0 mi NNW 11.5 mph - N/A   Clear
5:56 PM 99.0 °F - 52.0 °F 21% 29.87 in 10.0 mi North 9.2 mph 16.1 mph N/A   Clear
6:56 PM 97.0 °F - 52.0 °F 22% 29.86 in 10.0 mi North 9.2 mph - N/A   Clear
7:56 PM 93.0 °F - 51.1 °F 24% 29.87 in 10.0 mi North 6.9 mph - N/A   Clear
8:56 PM 82.0 °F 81.6 °F 55.9 °F 41% 29.88 in 6.0 mi Calm Calm - N/A   Haze
9:56 PM 78.1 °F - 55.9 °F 46% 29.90 in 10.0 mi Calm Calm - N/A   Clear
10:56 PM 75.0 °F - 55.0 °F 50% 29.91 in 10.0 mi Calm Calm - N/A   Clear
11:56 PM 71.1 °F - 57.0 °F 61% 29.92 in 10.0 mi Calm Calm - N/A   Clear